Location: ??
(34.9170°N, 135.5016°E)
Time: 19:31:21
(UTC+00:00)

Vanguard 2 Rocket - All Passes

Search period start: 04 March 2021 00:00
Search period end: 14 March 2021 00:00
Orbit: 554 x 3325 km, 32.9° (Epoch: 03 March)

Date Brightness Start Highest point End Pass type
(mag) Time Alt. Az. Time Alt. Az. Time Alt. Az.
04 Mar - 01:29:22 10° W 01:42:32 38° SSW 01:59:57 10° SSE daylight
04 Mar - 03:51:43 10° WSW 03:59:10 13° SW 04:07:00 10° SSW daylight
04 Mar - 17:51:36 10° SW 17:56:19 38° SSE 18:03:47 10° E visible
04 Mar - 20:02:46 10° WSW 20:09:32 78° S 20:22:00 10° E visible
04 Mar - 22:15:11 10° W 22:24:38 73° SSW 22:41:23 10° ESE daylight
05 Mar - 00:28:49 10° W 00:40:58 46° SSW 00:58:50 10° SE daylight
05 Mar - 02:46:44 10° WSW 02:57:41 20° SW 03:10:17 10° S daylight
05 Mar - 16:53:35 10° SSW 16:57:12 22° SE 17:02:02 10° E visible
05 Mar - 19:03:53 10° WSW 19:09:35 69° SSE 19:19:42 10° E visible
05 Mar - 21:15:54 10° W 21:23:54 78° S 21:38:36 10° ESE daylight
05 Mar - 23:28:50 10° W 23:39:37 54° SSW 23:57:03 10° SE daylight
06 Mar - 01:44:27 10° W 01:56:10 28° SW 02:11:08 10° SSE daylight
06 Mar - 15:57:13 10° SSE 15:58:11 11° SE 15:59:13 10° SE night (unlit)
06 Mar - 18:05:09 10° SW 18:09:58 53° SSE 18:17:54 10° E visible
06 Mar - 20:16:48 10° W 20:23:32 80° S 20:35:57 10° E visible
06 Mar - 22:29:15 10° W 22:38:33 62° SSW 22:54:47 10° ESE daylight
07 Mar - 00:43:25 10° W 00:54:43 35° SSW 01:10:44 10° SSE daylight
07 Mar - 03:06:14 10° WSW 03:11:23 12° SW 03:16:52 10° SSW daylight
07 Mar - 17:06:39 10° SW 17:10:42 34° SSE 17:16:31 10° E visible
07 Mar - 19:17:50 10° W 19:23:31 76° S 19:33:41 10° E visible
07 Mar - 21:29:57 10° W 21:37:52 69° SSW 21:52:17 10° ESE daylight
07 Mar - 23:43:10 10° W 23:53:27 42° SSW 00:09:31 10° SE daylight
08 Mar - 02:00:51 10° WSW 02:09:55 18° SW 02:20:46 10° S daylight
08 Mar - 16:08:35 10° SSW 16:11:37 20° SSE 16:15:18 10° E night (unlit)
08 Mar - 18:18:59 10° WSW 18:23:50 66° SSE 18:31:55 10° E visible
08 Mar - 20:30:51 10° W 20:37:32 75° S 20:49:49 10° ESE visible
08 Mar - 22:43:26 10° W 22:52:28 49° SSW 23:07:45 10° SE daylight
09 Mar - 00:58:44 10° W 01:08:33 24° SSW 01:21:36 10° SSE daylight
09 Mar - 17:20:14 10° SW 17:24:25 49° SSE 17:30:40 10° E visible
09 Mar - 19:31:51 10° W 19:37:31 77° S 19:47:38 10° E visible
09 Mar - 21:44:03 10° W 21:51:49 57° SSW 22:05:39 10° SE daylight
09 Mar - 23:57:55 10° W 00:07:21 30° SSW 00:21:13 10° SSE daylight
10 Mar - 16:21:37 10° SW 16:25:14 32° SSE 16:29:50 10° E visible
10 Mar - 18:32:57 10° W 18:37:47 74° S 18:45:54 10° E visible
10 Mar - 20:44:55 10° W 20:51:31 64° SSW 21:03:30 10° ESE visible
10 Mar - 22:57:52 10° W 23:06:25 37° SSW 23:20:07 10° SE daylight
11 Mar - 01:15:49 10° WSW 01:22:30 15° SW 01:30:30 10° S daylight
11 Mar - 15:23:18 10° SSW 15:26:07 19° SSE 15:29:11 10° ESE night (unlit)
11 Mar - 17:34:04 10° WSW 17:38:18 64° S 17:44:42 10° E visible
11 Mar - 19:45:55 10° W 19:51:32 70° S 20:01:30 10° ESE visible
11 Mar - 21:58:18 10° W 22:05:48 43° SSW 22:18:33 10° SE daylight
12 Mar - 00:13:34 10° WSW 00:21:21 20° SSW 00:31:44 10° S daylight
12 Mar - 14:26:15 10° SSE 14:26:55 10° SSE 14:27:33 10° SE night (unlit)
12 Mar - 16:35:11 10° WSW 16:39:01 47° SSE 16:44:01 10° E visible
12 Mar - 18:46:58 10° W 18:51:48 74° S 18:59:51 10° E visible
12 Mar - 20:59:02 10° W 21:05:30 50° SSW 21:16:49 10° SE daylight
12 Mar - 23:12:49 10° WSW 23:20:27 25° SSW 23:31:36 10° SSE daylight
13 Mar - 15:36:21 10° SW 15:39:51 31° SSE 15:43:44 10° E night (unlit)
13 Mar - 17:48:02 10° W 17:52:18 72° S 17:58:42 10° E visible
13 Mar - 20:00:00 10° W 20:05:32 57° SSW 20:15:09 10° ESE visible
13 Mar - 22:12:52 10° W 22:19:50 30° SSW 22:30:48 10° SSE daylight
